Location: Mentone
(34.5413°N, 85.5351°W)
Time: 07:20:48
(UTC-05:00)

Okean O Rocket - Visible Passes

Search period start: 03 July 2015 00:00
Search period end: 13 July 2015 00:00
Orbit: 625 x 645 km, 98.0° (Epoch: 02 July)

Date Brightness Start Highest point End Pass type
(mag) Time Alt. Az. Time Alt. Az. Time Alt. Az.
03 Jul 2.4 03:29:45 10° NNE 03:33:59 46° E 03:36:20 23° SSE visible
04 Jul 1.6 03:51:30 10° NNE 03:55:56 85° ESE 03:58:28 25° S visible
05 Jul 4.3 02:39:54 10° ENE 02:40:59 11° E 02:42:22 10° ESE visible
05 Jul 1.9 04:13:31 10° N 04:17:48 52° WNW 04:20:36 20° SW visible
06 Jul 3.7 02:59:58 10° NE 03:03:10 20° E 03:05:15 15° SE visible
06 Jul 2.7 04:35:48 10° NNW 04:39:37 29° WNW 04:42:44 13° SW visible
07 Jul 2.9 03:21:12 10° NNE 03:25:14 36° E 03:27:23 22° SSE visible
07 Jul 3.4 04:58:30 10° NNW 05:01:24 17° WNW 05:04:08 10° WSW visible
08 Jul 1.8 03:42:50 10° NNE 03:47:13 67° E 03:49:31 27° S visible
09 Jul 1.6 04:04:45 10° N 04:09:07 67° WNW 04:11:39 24° SSW visible
10 Jul 4.0 02:51:46 10° NE 02:54:21 16° E 02:56:18 13° ESE visible
10 Jul 2.3 04:26:55 10° N 04:30:57 36° WNW 04:33:46 17° SW visible
11 Jul 3.2 03:12:43 10° NE 03:16:28 28° E 03:18:25 20° SE visible
11 Jul 3.1 04:49:25 10° NNW 04:52:45 21° WNW 04:55:54 10° WSW visible
12 Jul 2.2 03:34:13 10° NNE 03:38:29 51° E 03:40:32 28° SSE visible
